Regional Weather Roundup
Issued by NWS

Home | Current Version | Previous Version | Text Only | Print | Product List | Glossary Off
Versions: 1 2 3 4 5 6 7 8 9 10 11 12 13 14 15 16 17 18 19 20 21 22 23 24 25 26 27 28 29 30 31 32 33 34 35 36 37 38 39 40 41 42 43 44 45 46 47 48 49 50

000
ASUS43 KLMK 232302
RWRKY
KENTUCKY REGIONAL WEATHER ROUNDUP
NATIONAL WEATHER SERVICE LOUISVILLE KY
700 PM EDT THU OCT 23 2014

NOTE "FAIR" INDICATES FEW OR NO CLOUDS BELOW 12,000 FEET
WITH NO SIGNIFICANT WEATHER AND/OR OBSTRUCTIONS TO VISIBILITY.

KYZ001>023-026-027-061>063-070>075-240000-
WESTERN AND SOUTH CENTRAL KENTUCKY

CITY           SKY/WX    TMP DP  RH WIND       PRES   REMARKS
PADUCAH        CLOUDY    55  45  68 SW3       30.14R
HENDERSON      CLOUDY   N/A N/A N/A CALM      30.13S
OWENSBORO      CLOUDY    59  43  55 CALM      30.13F
HOPKINSVILLE   MOCLDY    57  42  58 CALM      30.13S
BOWLING GREEN  MOCLDY    59  40  49 CALM      30.14R
GLASGOW        NOT AVBL
$$

KYZ024-025-028>034-038-045-046-053-240000-
NORTH CENTRAL KENTUCKY

CITY           SKY/WX    TMP DP  RH WIND       PRES   REMARKS
LOUISVILLE/SDF MOCLDY    56  42  59 W7        30.13S
LOUISVILLE/LOU PTCLDY    58  43  57 N3        30.14S
FORT KNOX      MOCLDY    54  42  63 N5        30.12S
$$

KYZ035>037-039>044-047>052-055>060-089>105-240000-
NORTHEAST KENTUCKY

CITY           SKY/WX    TMP DP  RH WIND       PRES   REMARKS
LEXINGTON      PTCLDY    55  42  61 NE5       30.14S
COVINGTON      MOCLDY    57  38  48 N3        30.13S
FRANKFORT      MOCLDY    54  41  61 SE3       30.13S
$$

KYZ054-064>069-076>088-106>120-240000-
SOUTHEAST KENTUCKY

CITY           SKY/WX    TMP DP  RH WIND       PRES   REMARKS
JACKSON        CLEAR     53  39  59 CALM      30.13R
LONDON         PTCLDY    56  41  57 CALM      30.12S
SOMERSET       PTCLDY    54  41  62 CALM      30.13S
MIDDLESBORO    PTCLDY    54  43  68 CALM      30.12R
MONTICELLO     MOCLDY    52  44  74 CALM      30.14S
$$




USA.gov is the U.S. government's official web portal to all federal, state and local government web resources and services.